Weather History for Belmar-Farmingdale, NJ

Change the Weather History Date:

Saturday, May 11, 2013

  Actual Average Record
Temperature  
Mean Temperature 68 °F -  
Max Temperature 75 °F 65 °F 86 °F (2004)
Min Temperature 62 °F 48 °F 44 °F (1997)
Cooling Degree Days 4    
Growing Degree Days 18 (Base 50)    
Moisture  
Dew Point 62 °F    
Average Humidity 91    
Maximum Humidity 100    
Minimum Humidity 65    
Precipitation  
Precipitation 0.90 in - - ()
Sea Level Pressure  
Sea Level Pressure 29.81 in    
Wind  
Wind Speed 7 mph (SSW)    
Max Wind Speed 14 mph    
Max Gust Speed 23 mph    
Visibility 8 miles    
Events Thunderstorm    
Averages and records for this station are not official NWS values.
T = Trace of Precipitation, MM = Missing Value Source: NWS Daily Summary

Daily Weather History Graph

Daily Weather History Graph

Search for Another Location

Airport:

Trip Planner

Search our weather history database for the weather conditions in past years. The results will help you decide how hot, cold, wet, or windy it might be!

Date:

Astronomy

May. 11, 2013 Rise Set
Actual Time 5:44 AM EDT 8:01 PM EDT
Civil Twilight 5:14 AM EDT 8:32 PM EDT
Nautical Twilight 4:36 AM EDT 9:09 PM EDT
Astronomical Twilight 3:55 AM EDT 9:51 PM EDT
Moon 6:50 AM EDT (5/11) 9:40 PM EDT (5/11)
Length of Visible Light 15h 18m
Length of Day
14h 17m
Waxing Crescent, 3% of the Moon is Illuminated
May 11
Waxing Crescent
May 18
First Quarter
May 25
Full
May 31
Last Quarter
Jun 8
New

Hourly Weather History & Observations

Time (EDT) Temp. Dew Point Humidity Pressure Visibility Wind Dir Wind Speed Gust Speed Precip Events Conditions
12:15 AM 66.2 °F 55.4 °F 68% 29.91 in 10.0 mi WSW 5.8 mph - N/A   Overcast
12:35 AM 66.2 °F 55.4 °F 68% 29.90 in 10.0 mi SW 3.5 mph - N/A   Mostly Cloudy
12:55 AM 66.2 °F 55.4 °F 68% 29.92 in 10.0 mi West 8.1 mph - N/A   Mostly Cloudy
1:15 AM 66.2 °F 57.2 °F 73% 29.91 in 10.0 mi West 9.2 mph - N/A   Mostly Cloudy
1:35 AM 64.4 °F 60.8 °F 88% 29.91 in 10.0 mi West 5.8 mph - N/A   Overcast
1:55 AM 64.4 °F 60.8 °F 88% 29.89 in 10.0 mi SW 4.6 mph - N/A   Overcast
2:15 AM 62.6 °F 62.6 °F 100% 29.92 in 10.0 mi West 9.2 mph 18.4 mph N/A   Overcast
2:35 AM 62.6 °F 62.6 °F 100% 29.91 in 10.0 mi WSW 5.8 mph - 0.01 in   Overcast
2:55 AM 62.6 °F 62.6 °F 100% 29.89 in 8.0 mi SW 6.9 mph - 0.06 in   Overcast
3:15 AM 62.6 °F 60.8 °F 94% 29.88 in 10.0 mi SW 5.8 mph - 0.01 in   Overcast
3:35 AM 62.6 °F 62.6 °F 100% 29.88 in 10.0 mi WSW 6.9 mph - 0.01 in   Overcast
3:55 AM 62.6 °F 60.8 °F 94% 29.88 in 10.0 mi SSW 5.8 mph - 0.02 in   Overcast
4:15 AM 62.6 °F 60.8 °F 94% 29.88 in 10.0 mi SSW 9.2 mph - N/A   Overcast
4:35 AM 62.6 °F 60.8 °F 94% 29.87 in 10.0 mi SSW 9.2 mph 17.3 mph 0.02 in   Overcast
4:55 AM 62.6 °F 60.8 °F 94% 29.86 in 10.0 mi SSW 10.4 mph - 0.03 in   Overcast
5:15 AM 62.6 °F 60.8 °F 94% 29.85 in 10.0 mi SW 6.9 mph - N/A   Overcast
5:35 AM 62.6 °F 60.8 °F 94% 29.84 in 10.0 mi SSW 5.8 mph - N/A   Mostly Cloudy
5:55 AM 62.6 °F 60.8 °F 94% 29.84 in 10.0 mi South 5.8 mph - N/A   Mostly Cloudy
6:15 AM 62.6 °F 60.8 °F 94% 29.84 in 10.0 mi South 8.1 mph - N/A   Overcast
6:35 AM 62.6 °F 60.8 °F 94% 29.84 in 10.0 mi South 6.9 mph - N/A   Overcast
6:55 AM 62.6 °F 60.8 °F 94% 29.85 in 10.0 mi South 9.2 mph - N/A   Mostly Cloudy
7:15 AM 62.6 °F 60.8 °F 94% 29.85 in 10.0 mi South 8.1 mph - N/A   Mostly Cloudy
7:35 AM 62.6 °F 60.8 °F 94% 29.86 in 10.0 mi SSW 6.9 mph - N/A   Scattered Clouds
7:55 AM 62.6 °F 60.8 °F 94% 29.86 in 10.0 mi SW 6.9 mph - N/A   Mostly Cloudy
8:15 AM 62.6 °F 62.6 °F 100% 29.86 in 10.0 mi SSW 6.9 mph - N/A   Mostly Cloudy
8:35 AM 64.4 °F 62.6 °F 94% 29.84 in 10.0 mi South 8.1 mph - 0.01 in   Mostly Cloudy
8:55 AM 64.4 °F 62.6 °F 94% 29.84 in 10.0 mi South 13.8 mph 18.4 mph 0.01 in   Mostly Cloudy
9:15 AM 66.2 °F 62.6 °F 88% 29.84 in 10.0 mi SSW 11.5 mph 19.6 mph N/A   Mostly Cloudy
9:35 AM 66.2 °F 62.6 °F 88% 29.84 in 10.0 mi SSW 13.8 mph 20.7 mph N/A   Mostly Cloudy
9:55 AM 66.2 °F 62.6 °F 88% 29.84 in 10.0 mi South 12.7 mph 18.4 mph N/A   Scattered Clouds
10:15 AM 64.4 °F 62.6 °F 94% 29.84 in 10.0 mi SSW 11.5 mph 20.7 mph N/A   Mostly Cloudy
10:35 AM 64.4 °F 62.6 °F 94% 29.82 in 10.0 mi South 9.2 mph 16.1 mph N/A   Mostly Cloudy
10:55 AM 64.4 °F 62.6 °F 94% 29.82 in 10.0 mi South 12.7 mph 17.3 mph N/A   Mostly Cloudy
11:15 AM 64.4 °F 62.6 °F 94% 29.82 in 10.0 mi South 11.5 mph 17.3 mph N/A   Mostly Cloudy
11:35 AM 64.4 °F 60.8 °F 88% 29.83 in 10.0 mi South 10.4 mph 19.6 mph N/A   Mostly Cloudy
11:55 AM 64.4 °F 60.8 °F 88% 29.84 in 10.0 mi South 11.5 mph - N/A   Overcast
12:15 PM 64.4 °F 60.8 °F 88% 29.82 in 10.0 mi SSW 8.1 mph 16.1 mph N/A   Overcast
12:35 PM 66.2 °F 62.6 °F 88% 29.81 in 10.0 mi SSW 6.9 mph - N/A   Overcast
12:55 PM 66.2 °F 62.6 °F 88% 29.80 in 10.0 mi SW 10.4 mph - N/A   Overcast
1:15 PM 68.0 °F 62.6 °F 83% 29.79 in 10.0 mi SSW 11.5 mph - N/A   Scattered Clouds
1:35 PM 71.6 °F 64.4 °F 78% 29.78 in 10.0 mi SSW 9.2 mph - N/A   Scattered Clouds
1:55 PM 73.4 °F 62.6 °F 69% 29.77 in 10.0 mi SW 11.5 mph 18.4 mph N/A   Partly Cloudy
2:15 PM 73.4 °F 62.6 °F 69% 29.76 in 10.0 mi WSW 12.7 mph - N/A   Scattered Clouds
2:35 PM 75.2 °F 62.6 °F 65% 29.75 in 10.0 mi SSW 9.2 mph - N/A   Scattered Clouds
2:55 PM 73.4 °F 64.4 °F 73% 29.74 in 10.0 mi South 9.2 mph - N/A   Mostly Cloudy
3:35 PM 69.8 °F 62.6 °F 78% 29.72 in 10.0 mi SSE 10.4 mph 17.3 mph N/A   Mostly Cloudy
3:55 PM 68.0 °F 62.6 °F 83% 29.71 in 10.0 mi SSE 11.5 mph 23.0 mph N/A Thunderstorm Thunderstorm
4:15 PM 66.2 °F 64.4 °F 94% 29.74 in 4.0 mi NNW 8.1 mph - 0.09 in Thunderstorm Thunderstorm
4:35 PM 66.2 °F 64.4 °F 94% 29.74 in 5.0 mi ESE 8.1 mph - 0.26 in Thunderstorm Thunderstorm
4:55 PM 66.2 °F 64.4 °F 94% 29.73 in 4.0 mi South 9.2 mph - 0.44 in Thunderstorm Thunderstorm
5:15 PM 66.2 °F 64.4 °F 94% 29.74 in 7.0 mi Calm Calm - N/A Thunderstorm Mostly Cloudy
5:35 PM 66.2 °F 66.2 °F 100% 29.75 in 7.0 mi Calm Calm - 0.01 in Thunderstorm Thunderstorm
5:55 PM 64.4 °F 64.4 °F 100% 29.75 in 10.0 mi NNE 5.8 mph - 0.01 in   Overcast
6:15 PM 64.4 °F 64.4 °F 100% 29.74 in 10.0 mi NE 5.8 mph - N/A   Overcast
6:35 PM 64.4 °F 64.4 °F 100% 29.74 in 10.0 mi ENE 3.5 mph - N/A   Overcast
6:55 PM 64.4 °F 64.4 °F 100% 29.74 in 6.0 mi ESE 6.9 mph - N/A   Mostly Cloudy
7:15 PM 62.6 °F 62.6 °F 100% 29.74 in 4.0 mi East 6.9 mph - N/A   Overcast
7:35 PM 62.6 °F 62.6 °F 100% 29.74 in 4.0 mi ENE 3.5 mph - N/A   Overcast
7:55 PM 62.6 °F 60.8 °F 94% 29.75 in 4.0 mi East 5.8 mph - N/A   Overcast
8:15 PM 62.6 °F 60.8 °F 94% 29.76 in 5.0 mi SE 4.6 mph - N/A   Overcast
8:35 PM 62.6 °F 60.8 °F 94% 29.75 in 5.0 mi Calm Calm - N/A   Mostly Cloudy
8:55 PM 62.6 °F 62.6 °F 100% 29.75 in 6.0 mi Calm Calm - N/A   Mostly Cloudy
9:15 PM 62.6 °F 62.6 °F 100% 29.74 in 5.0 mi Calm Calm - N/A Thunderstorm Overcast
9:35 PM 62.6 °F 60.8 °F 94% 29.75 in 4.0 mi WSW 5.8 mph - 0.07 in   Overcast
9:55 PM 64.4 °F 64.4 °F 100% 29.74 in 5.0 mi South 5.8 mph - 0.33 in   Overcast
10:15 PM 64.4 °F 64.4 °F 100% 29.74 in 5.0 mi SSW 4.6 mph - N/A   Partly Cloudy
10:35 PM 64.4 °F 62.6 °F 94% 29.74 in 5.0 mi SW 3.5 mph - N/A   Scattered Clouds
10:55 PM 64.4 °F 64.4 °F 100% 29.74 in 4.0 mi SW 3.5 mph - N/A   Mostly Cloudy
11:15 PM 62.6 °F 62.6 °F 100% 29.73 in 3.0 mi Calm Calm - N/A   Overcast
11:35 PM 62.6 °F 62.6 °F 100% 29.73 in 3.0 mi SW 5.8 mph - N/A   Mostly Cloudy
11:55 PM 64.4 °F 64.4 °F 100% 29.73 in 2.5 mi WSW 3.5 mph - N/A   Mostly Cloudy